Tracking 19638 objects as of 22-Apr-2019
HD Live streaming from Space Station
objects crossing your sky now

PROBA 1

Track PROBA 1 now!
10-day predictions
PROBA 1 is classified as:


NORAD ID: 26958
Int'l Code: 2001-049B
Perigee: 538.6 km
Apogee: 638.1 km
Inclination: 97.7 °
Period: 96.3 minutes
Semi major axis: 6959 km
RCS: Unknown
Launch date: October 22, 2001
Source: European Space Agency (ESA)
Launch site: SRIHARIKOTA (SRI)

First a technology demonstration, then extended for one year for remote sensing; looks like a washing machine.
aabbcc
Your satellite tracking list
Your tracking list is empty




NASA's NSSDC Master Catalog

Two Line Element Set (TLE):
1 26958U 01049B   19111.83768465  .00000656  00000-0  61877-4 0  9994
2 26958  97.6622  69.4314 0071449 232.2429 127.2332 14.95369844952188
Source of the keplerian elements: AFSPC